Time,TemperatureF,DewpointF,PressureIn,WindDirection,WindDirectionDegrees,WindSpeedMPH,WindSpeedGustMPH,Humidity,HourlyPrecipIn,Conditions,Clouds,dailyrainin,SoftwareType,DateUTC
2013-08-02 00:02:00,71.0,30.0,29.95,WNW,292,26.0,45.0,22,0.00,,,0.00,,2013-08-02 07:02:00,
2013-08-02 00:12:00,71.0,30.0,29.95,WNW,295,26.0,43.0,22,0.00,,,0.00,,2013-08-02 07:12:00,
2013-08-02 00:33:00,71.0,31.0,29.94,WNW,287,29.0,44.0,23,0.00,,,0.00,,2013-08-02 07:33:00,
2013-08-02 00:44:00,71.0,33.0,29.94,WNW,290,27.0,47.0,25,0.00,,,0.00,,2013-08-02 07:44:00,
2013-08-02 00:53:00,70.0,34.0,29.94,WNW,292,28.0,39.0,26,0.00,,,0.00,,2013-08-02 07:53:00,
2013-08-02 01:02:00,70.0,34.0,29.94,WNW,298,29.0,41.0,26,0.00,,,0.00,,2013-08-02 08:02:00,
2013-08-02 01:12:00,70.0,34.0,29.92,WNW,294,31.0,45.0,26,0.00,,,0.00,,2013-08-02 08:12:00,
2013-08-02 01:33:00,70.0,32.0,29.93,WNW,302,23.0,44.0,24,0.00,,,0.00,,2013-08-02 08:33:00,
2013-08-02 01:43:00,70.0,30.0,29.94,WNW,290,25.0,48.0,23,0.00,,,0.00,,2013-08-02 08:43:00,
2013-08-02 01:53:00,70.0,30.0,29.94,WNW,290,25.0,48.0,23,0.00,,,0.00,,2013-08-02 08:53:00,
2013-08-02 02:01:00,70.0,32.0,29.95,WNW,290,25.0,45.0,24,0.00,,,0.00,,2013-08-02 09:01:00,
2013-08-02 02:12:00,70.0,32.0,29.94,WNW,294,27.0,45.0,24,0.00,,,0.00,,2013-08-02 09:12:00,
2013-08-02 02:33:00,69.0,32.0,29.93,WNW,294,21.0,37.0,25,0.00,,,0.00,,2013-08-02 09:33:00,
2013-08-02 02:43:00,69.0,31.0,29.94,WNW,293,16.0,44.0,24,0.00,,,0.00,,2013-08-02 09:43:00,
2013-08-02 02:52:00,69.0,30.0,29.93,WNW,291,21.0,33.0,23,0.00,,,0.00,,2013-08-02 09:52:00,
2013-08-02 03:02:00,70.0,28.0,29.91,WNW,295,27.0,43.0,21,0.00,,,0.00,,2013-08-02 10:02:00,
2013-08-02 03:12:00,70.0,27.0,29.93,NW,305,30.0,43.0,20,0.00,,,0.00,,2013-08-02 10:12:00,
2013-08-02 03:23:00,70.0,26.0,29.93,WNW,291,29.0,43.0,19,0.00,,,0.00,,2013-08-02 10:23:00,
2013-08-02 03:33:00,70.0,25.0,29.94,WNW,287,27.0,41.0,18,0.00,,,0.00,,2013-08-02 10:33:00,
2013-08-02 03:43:00,70.0,25.0,29.93,West,278,21.0,37.0,18,0.00,,,0.00,,2013-08-02 10:43:00,
2013-08-02 03:52:00,70.0,26.0,29.94,WNW,286,20.0,38.0,19,0.00,,,0.00,,2013-08-02 10:52:00,
2013-08-02 04:01:00,70.0,25.0,29.93,WNW,291,26.0,40.0,18,0.00,,,0.00,,2013-08-02 11:01:00,
2013-08-02 04:11:00,69.0,25.0,29.93,WNW,285,18.0,39.0,19,0.00,,,0.00,,2013-08-02 11:11:00,
2013-08-02 04:32:00,68.0,27.0,29.93,WNW,290,22.0,41.0,21,0.00,,,0.00,,2013-08-02 11:32:00,
2013-08-02 04:42:00,69.0,27.0,29.92,WNW,288,21.0,39.0,21,0.00,,,0.00,,2013-08-02 11:42:00,
2013-08-02 04:52:00,68.0,28.0,29.93,WNW,289,24.0,40.0,22,0.00,,,0.00,,2013-08-02 11:52:00,
2013-08-02 05:01:00,68.0,27.0,29.91,WNW,294,27.0,39.0,21,0.00,,,0.00,,2013-08-02 12:01:00,
2013-08-02 05:11:00,68.0,27.0,29.93,WNW,292,19.0,39.0,21,0.00,,,0.00,,2013-08-02 12:11:00,
2013-08-02 05:32:00,68.0,28.0,29.90,WNW,294,25.0,36.0,22,0.00,,,0.00,,2013-08-02 12:32:00,
2013-08-02 05:42:00,69.0,27.0,29.91,WNW,294,13.0,42.0,21,0.00,,,0.00,,2013-08-02 12:42:00,
2013-08-02 05:52:00,68.0,28.0,29.91,WNW,292,23.0,39.0,22,0.00,,,0.00,,2013-08-02 12:52:00,
2013-08-02 06:01:00,68.0,24.0,29.90,WNW,300,20.0,38.0,19,0.00,,,0.00,,2013-08-02 13:01:00,
2013-08-02 08:21:00,72.0,22.0,29.95,WNW,282,15.0,22.0,15,0.00,,,0.00,,2013-08-02 15:21:00,
2013-08-02 08:43:00,73.0,23.0,29.94,West,279,19.0,30.0,15,0.00,,,0.00,,2013-08-02 15:43:00,
2013-08-02 08:52:00,74.0,22.0,29.95,WNW,292,15.0,26.0,14,0.00,,,0.00,,2013-08-02 15:52:00,
2013-08-02 09:11:00,76.0,23.0,29.96,WNW,290,10.0,20.0,14,0.00,,,0.00,,2013-08-02 16:11:00,
2013-08-02 09:32:00,77.0,24.0,29.96,WNW,300,10.0,18.0,14,0.00,,,0.00,,2013-08-02 16:32:00,
2013-08-02 09:42:00,77.0,24.0,29.96,WNW,290,7.0,18.0,14,0.00,,,0.00,,2013-08-02 16:42:00,
2013-08-02 09:52:00,78.0,23.0,29.96,West,278,10.0,19.0,13,0.00,,,0.00,,2013-08-02 16:52:00,
2013-08-02 10:02:00,79.0,22.0,29.96,WNW,289,14.0,18.0,12,0.00,,,0.00,,2013-08-02 17:02:00,
2013-08-02 10:11:00,80.0,23.0,29.96,West,270,11.0,18.0,12,0.00,,,0.00,,2013-08-02 17:11:00,
2013-08-02 10:42:00,81.0,24.0,29.96,WNW,294,3.0,13.0,12,0.00,,,0.00,,2013-08-02 17:42:00,
2013-08-02 10:52:00,82.0,24.0,29.96,WNW,288,12.0,22.0,12,0.00,,,0.00,,2013-08-02 17:52:00,
2013-08-02 11:01:00,82.0,20.0,29.96,West,266,15.0,22.0,10,0.00,,,0.00,,2013-08-02 18:01:00,
2013-08-02 11:22:00,81.0,17.0,29.96,WSW,243,20.0,27.0,9,0.00,,,0.00,,2013-08-02 18:22:00,
2013-08-02 11:32:00,82.0,20.0,29.95,WSW,238,21.0,26.0,10,0.00,,,0.00,,2013-08-02 18:32:00,
2013-08-02 11:43:00,82.0,20.0,29.96,WSW,247,17.0,30.0,10,0.00,,,0.00,,2013-08-02 18:43:00,
2013-08-02 11:52:00,82.0,20.0,29.96,WSW,254,17.0,23.0,10,0.00,,,0.00,,2013-08-02 18:52:00,
2013-08-02 12:11:00,84.0,22.0,29.96,WSW,253,15.0,20.0,10,0.00,,,0.00,,2013-08-02 19:11:00,
2013-08-02 12:32:00,86.0,27.0,29.95,WSW,243,12.0,25.0,12,0.00,,,0.00,,2013-08-02 19:32:00,
2013-08-02 12:42:00,84.0,28.0,29.96,WSW,240,20.0,26.0,13,0.00,,,0.00,,2013-08-02 19:42:00,
2013-08-02 12:52:00,85.0,29.0,29.95,WSW,240,20.0,26.0,13,0.00,,,0.00,,2013-08-02 19:52:00,
2013-08-02 13:02:00,85.0,30.0,29.95,WSW,238,19.0,26.0,14,0.00,,,0.00,,2013-08-02 20:02:00,
2013-08-02 13:11:00,86.0,29.0,29.95,WSW,249,15.0,25.0,13,0.00,,,0.00,,2013-08-02 20:11:00,
2013-08-02 13:32:00,86.0,29.0,29.97,WSW,243,15.0,27.0,13,0.00,,,0.00,,2013-08-02 20:32:00,
2013-08-02 13:43:00,86.0,29.0,29.97,WSW,246,18.0,27.0,13,0.00,,,0.00,,2013-08-02 20:43:00,
2013-08-02 13:52:00,86.0,29.0,29.97,West,263,14.0,27.0,13,0.00,,,0.00,,2013-08-02 20:52:00,
2013-08-02 14:01:00,86.0,29.0,29.97,West,263,14.0,27.0,13,0.00,,,0.00,,2013-08-02 21:01:00,
2013-08-02 14:11:00,85.0,29.0,29.97,West,262,13.0,25.0,13,0.00,,,0.00,,2013-08-02 21:11:00,
2013-08-02 14:32:00,86.0,29.0,29.96,West,278,12.0,23.0,13,0.00,,,0.00,,2013-08-02 21:32:00,
2013-08-02 14:43:00,85.0,29.0,29.96,West,273,15.0,19.0,13,0.00,,,0.00,,2013-08-02 21:43:00,
2013-08-02 14:52:00,85.0,29.0,29.96,West,273,11.0,19.0,13,0.00,,,0.00,,2013-08-02 21:52:00,
2013-08-02 15:01:00,86.0,29.0,29.96,West,274,15.0,20.0,13,0.00,,,0.00,,2013-08-02 22:01:00,
2013-08-02 15:32:00,85.0,29.0,29.95,West,264,10.0,20.0,13,0.00,,,0.00,,2013-08-02 22:32:00,
2013-08-02 15:52:00,85.0,29.0,29.94,WNW,299,10.0,21.0,13,0.00,,,0.00,,2013-08-02 22:52:00,
2013-08-02 16:43:00,82.0,28.0,29.94,West,270,19.0,25.0,14,0.00,,,0.00,,2013-08-02 23:43:00,
2013-08-02 16:53:00,82.0,28.0,29.94,West,278,15.0,25.0,14,0.00,,,0.00,,2013-08-02 23:53:00,
2013-08-02 17:01:00,82.0,28.0,29.94,West,278,15.0,25.0,14,0.00,,,0.00,,2013-08-03 00:01:00,
2013-08-02 17:11:00,82.0,30.0,29.93,West,260,13.0,26.0,15,0.00,,,0.00,,2013-08-03 00:11:00,
2013-08-02 17:52:00,80.0,31.0,29.93,West,261,18.0,27.0,17,0.00,,,0.00,,2013-08-03 00:52:00,
2013-08-02 18:02:00,79.0,32.0,29.94,West,263,13.0,27.0,18,0.00,,,0.00,,2013-08-03 01:02:00,
2013-08-02 18:42:00,78.0,32.0,29.93,West,275,18.0,28.0,19,0.00,,,0.00,,2013-08-03 01:42:00,
2013-08-02 18:53:00,78.0,31.0,29.93,WNW,282,17.0,30.0,18,0.00,,,0.00,,2013-08-03 01:53:00,
2013-08-02 19:32:00,77.0,30.0,29.93,West,271,18.0,26.0,18,0.00,,,0.00,,2013-08-03 02:32:00,
2013-08-02 19:43:00,76.0,29.0,29.94,West,278,20.0,33.0,18,0.00,,,0.00,,2013-08-03 02:43:00,
2013-08-02 19:52:00,75.0,29.0,29.93,West,274,22.0,31.0,18,0.00,,,0.00,,2013-08-03 02:52:00,
2013-08-02 20:43:00,74.0,26.0,29.94,WNW,285,23.0,32.0,17,0.00,,,0.00,,2013-08-03 03:43:00,
2013-08-02 20:53:00,74.0,26.0,29.93,WNW,282,25.0,33.0,17,0.00,,,0.00,,2013-08-03 03:53:00,
2013-08-02 23:32:00,73.0,28.0,29.96,WNW,296,17.0,31.0,19,0.00,,,0.00,,2013-08-03 06:32:00,
2013-08-02 23:42:00,73.0,28.0,29.96,WNW,294,22.0,33.0,19,0.00,,,0.00,,2013-08-03 06:42:00,
2013-08-02 23:52:00,73.0,28.0,29.96,WNW,295,21.0,31.0,19,0.00,,,0.00,,2013-08-03 06:52:00,